Location: Shenandoah County Park
(38.9356°N, 78.4524°W)
Time: 09:38:08
(UTC-04:00)

Vanguard 1 Rocket - Pass Details

Date: 14 February 2023
Orbit: 652 x 4223 km, 34.3° (Epoch: 24 March)

Event Time Altitude Azimuth Distance (km) Brightness Sun altitude
Rises 09:08:28 0° 227° (SW) 3,101 10.1 20.3°
Reaches altitude 10° 09:10:38 10° 217° (SW) 2,334 9.6 20.7°
Maximum altitude 09:15:28 36° 151° (SSE) 1,567 10.1 21.4°
Drops below altitude 10° 09:23:12 10° 89° (E) 3,773 11.4 22.6°
Sets 09:27:43 0° 82° (E) 5,354 11.9 23.2°
